When you browse on this site, cookies collect data to enhance your experience and personalize the content and advertising you see.
Visit our Privacy Policy to learn more. By continuing to use the site, you agree to this use of cookies and data.
  • în România
  • Lista ţărilor
  • Pe 7 zile
  • Temperatura apei
  • Hartă satelitară
  • Meteo pe hartă
  • Widget-uri
  • user-avatar
    Intrare

    Meteo pe oră la Shahabad

    Astăzi, 21 Iulie, Duminică

    Timp Temperatura Precipitaţii Vânt Presiune Umiditate
    00:00 +34°C° 0 mm 2 m/s 730 mmHg 57%
    01:00 +34°C° 0 mm 2 m/s 730 mmHg 58%
    02:00 +32°C° 0 mm 2 m/s 730 mmHg 60%
    03:00 +32°C° 0 mm 2 m/s 730 mmHg 61%
    04:00 +32°C° 0 mm 2 m/s 730 mmHg 62%
    05:00 +31°C° 0 mm 2 m/s 730 mmHg 65%
    06:00 +32°C° 0.6 mm 2 m/s 730 mmHg 61%
    07:00 +34°C° 0.6 mm 2 m/s 730 mmHg 58%
    08:00 +35°C° 0.6 mm 3 m/s 731 mmHg 54%
    09:00 +37°C° 0 mm 3 m/s 731 mmHg 50%
    10:00 +38°C° 0 mm 3 m/s 730 mmHg 46%
    11:00 +40°C° 0 mm 3 m/s 731 mmHg 39%
    12:00 +40°C° 0 mm 3 m/s 731 mmHg 38%
    13:00 +40°C° 0 mm 2 m/s 730 mmHg 38%
    14:00 +40°C° 0 mm 2 m/s 730 mmHg 37%
    15:00 +40°C° 0 mm 2 m/s 729 mmHg 37%
    16:00 +40°C° 0 mm 1 m/s 729 mmHg 37%
    17:00 +40°C° 0 mm 1 m/s 728 mmHg 37%
    18:00 +39°C° 0 mm 1 m/s 728 mmHg 41%
    19:00 +38°C° 0 mm 2 m/s 728 mmHg 45%
    20:00 +36°C° 0 mm 2 m/s 729 mmHg 48%
    21:00 +35°C° 0 mm 1 m/s 729 mmHg 50%
    22:00 +34°C° 0 mm 1 m/s 729 mmHg 52%
    23:00 +32°C° 0 mm 0 m/s 729 mmHg 53%

    Mâine, 22 Iulie, Luni

    Timp Temperatura Precipitaţii Vânt Presiune Umiditate
    00:00 +34°C° 0 mm 1 m/s 729 mmHg 54%
    01:00 +33°C° 0 mm 1 m/s 729 mmHg 55%
    02:00 +34°C° 0 mm 2 m/s 728 mmHg 56%
    03:00 +34°C° 0.2 mm 2 m/s 729 mmHg 59%
    04:00 +32°C° 0.2 mm 2 m/s 729 mmHg 61%
    05:00 +32°C° 0.2 mm 2 m/s 729 mmHg 64%
    06:00 +34°C° 0 mm 2 m/s 729 mmHg 60%
    07:00 +35°C° 0 mm 3 m/s 730 mmHg 56%
    08:00 +37°C° 0 mm 3 m/s 730 mmHg 52%
    09:00 +38°C° 0 mm 3 m/s 730 mmHg 47%
    10:00 +39°C° 0 mm 2 m/s 730 mmHg 42%
    11:00 +41°C° 0 mm 2 m/s 729 mmHg 37%
    12:00 +41°C° 0 mm 2 m/s 729 mmHg 36%
    13:00 +41°C° 0 mm 2 m/s 729 mmHg 34%
    14:00 +42°C° 0 mm 1 m/s 728 mmHg 33%
    15:00 +42°C° 0 mm 1 m/s 728 mmHg 33%
    16:00 +42°C° 0 mm 2 m/s 727 mmHg 33%
    17:00 +42°C° 0 mm 2 m/s 727 mmHg 33%
    18:00 +40°C° 0 mm 2 m/s 727 mmHg 36%
    19:00 +39°C° 0 mm 1 m/s 727 mmHg 39%
    20:00 +37°C° 0 mm 1 m/s 728 mmHg 42%
    21:00 +36°C° 0 mm 1 m/s 728 mmHg 43%
    22:00 +36°C° 0 mm 1 m/s 728 mmHg 44%
    23:00 +35°C° 0 mm 1 m/s 728 mmHg 46%

    Poimâine, 23 Iulie, Marţi

    Timp Temperatura Precipitaţii Vânt Presiune Umiditate
    00:00 +35°C° 0 mm 1 m/s 728 mmHg 48%
    01:00 +34°C° 0 mm 1 m/s 728 mmHg 49%
    02:00 +34°C° 0 mm 1 m/s 728 mmHg 51%
    03:00 +34°C° 0 mm 1 m/s 727 mmHg 53%
    04:00 +33°C° 0 mm 1 m/s 727 mmHg 54%
    05:00 +33°C° 0 mm 1 m/s 727 mmHg 56%
    06:00 +34°C° 0 mm 1 m/s 727 mmHg 52%
    07:00 +35°C° 0 mm 1 m/s 728 mmHg 49%
    08:00 +37°C° 0 mm 1 m/s 728 mmHg 46%
    09:00 +39°C° 0 mm 1 m/s 728 mmHg 41%
    10:00 +41°C° 0 mm 2 m/s 728 mmHg 36%
    11:00 +43°C° 0 mm 2 m/s 728 mmHg 31%
    12:00 +43°C° 0 mm 2 m/s 727 mmHg 30%
    13:00 +44°C° 0 mm 3 m/s 727 mmHg 30%
    14:00 +44°C° 0 mm 3 m/s 726 mmHg 29%
    15:00 +44°C° 0 mm 4 m/s 726 mmHg 29%
    16:00 +44°C° 0 mm 4 m/s 725 mmHg 29%
    17:00 +44°C° 0 mm 4 m/s 725 mmHg 29%
    18:00 +43°C° 0 mm 3 m/s 725 mmHg 32%
    19:00 +40°C° 0 mm 3 m/s 725 mmHg 35%
    20:00 +39°C° 0 mm 2 m/s 725 mmHg 38%
    21:00 +37°C° 0 mm 1 m/s 726 mmHg 40%
    22:00 +37°C° 0 mm 1 m/s 726 mmHg 42%
    23:00 +36°C° 0 mm 1 m/s 726 mmHg 44%

    24 Iulie, Miercuri

    Timp Temperatura Precipitaţii Vânt Presiune Umiditate
    00:00 +36°C° 0 mm 1 m/s 726 mmHg 45%
    01:00 +35°C° 0 mm 1 m/s 726 mmHg 46%
    02:00 +35°C° 0 mm 1 m/s 726 mmHg 47%
    03:00 +35°C° 0 mm 1 m/s 726 mmHg 48%
    04:00 +34°C° 0 mm 1 m/s 726 mmHg 49%
    05:00 +34°C° 0 mm 1 m/s 726 mmHg 50%
    06:00 +35°C° 0 mm 2 m/s 726 mmHg 52%
    07:00 +35°C° 0 mm 3 m/s 726 mmHg 54%
    08:00 +36°C° 0 mm 4 m/s 726 mmHg 56%
    09:00 +38°C° 0 mm 4 m/s 726 mmHg 51%
    10:00 +39°C° 0 mm 3 m/s 726 mmHg 46%
    11:00 +42°C° 0 mm 3 m/s 727 mmHg 41%
    12:00 +43°C° 0 mm 3 m/s 726 mmHg 37%
    13:00 +44°C° 0 mm 3 m/s 726 mmHg 33%
    14:00 +45°C° 0 mm 3 m/s 725 mmHg 29%
    15:00 +44°C° 0 mm 3 m/s 725 mmHg 31%
    16:00 +44°C° 0 mm 3 m/s 725 mmHg 33%
    17:00 +43°C° 0 mm 3 m/s 725 mmHg 34%
    18:00 +40°C° 0 mm 5 m/s 725 mmHg 47%
    19:00 +36°C° 0 mm 7 m/s 726 mmHg 60%
    20:00 +33°C° 0 mm 9 m/s 726 mmHg 72%
    21:00 +32°C° 0.6 mm 8 m/s 726 mmHg 76%
    22:00 +31°C° 0.6 mm 8 m/s 727 mmHg 79%
    23:00 +30°C° 0.6 mm 7 m/s 727 mmHg 83%

    25 Iulie, Joi

    Timp Temperatura Precipitaţii Vânt Presiune Umiditate
    00:00 +29°C° 1.2 mm 7 m/s 727 mmHg 83%
    01:00 +29°C° 1.2 mm 7 m/s 727 mmHg 83%
    02:00 +29°C° 1.2 mm 8 m/s 727 mmHg 83%
    03:00 +29°C° 2.2 mm 7 m/s 727 mmHg 84%
    04:00 +28°C° 2.2 mm 7 m/s 728 mmHg 85%
    05:00 +28°C° 2.2 mm 7 m/s 728 mmHg 86%
    06:00 +28°C° 1.9 mm 7 m/s 728 mmHg 85%
    07:00 +28°C° 1.9 mm 7 m/s 729 mmHg 85%
    08:00 +28°C° 1.9 mm 7 m/s 729 mmHg 84%
    09:00 +28°C° 5.4 mm 7 m/s 730 mmHg 86%
    10:00 +27°C° 5.4 mm 7 m/s 730 mmHg 89%
    11:00 +27°C° 5.4 mm 6 m/s 731 mmHg 92%
    12:00 +27°C° 1.8 mm 6 m/s 730 mmHg 89%
    13:00 +28°C° 1.8 mm 6 m/s 730 mmHg 86%
    14:00 +28°C° 1.8 mm 6 m/s 730 mmHg 83%
    15:00 +29°C° 0 mm 5 m/s 729 mmHg 80%
    16:00 +30°C° 0 mm 5 m/s 729 mmHg 77%
    17:00 +30°C° 0 mm 4 m/s 728 mmHg 74%
    18:00 +29°C° 0 mm 4 m/s 728 mmHg 77%
    19:00 +29°C° 0 mm 3 m/s 728 mmHg 81%
    20:00 +28°C° 0 mm 3 m/s 729 mmHg 84%
    21:00 +28°C° 0 mm 3 m/s 729 mmHg 84%
    22:00 +28°C° 0 mm 3 m/s 729 mmHg 85%
    23:00 +28°C° 0 mm 3 m/s 729 mmHg 85%

    26 Iulie, Vineri

    Timp Temperatura Precipitaţii Vânt Presiune Umiditate
    00:00 +28°C° 0 mm 3 m/s 729 mmHg 85%
    01:00 +28°C° 0 mm 3 m/s 728 mmHg 84%
    02:00 +28°C° 0 mm 3 m/s 728 mmHg 84%
    03:00 +28°C° 0 mm 3 m/s 728 mmHg 84%
    04:00 +28°C° 0 mm 3 m/s 728 mmHg 85%
    05:00 +27°C° 0 mm 2 m/s 728 mmHg 85%
    06:00 +28°C° 0.5 mm 2 m/s 729 mmHg 81%
    07:00 +29°C° 0.5 mm 3 m/s 729 mmHg 78%
    08:00 +30°C° 0.5 mm 3 m/s 729 mmHg 74%
    09:00 +29°C° 0.9 mm 4 m/s 730 mmHg 76%
    10:00 +29°C° 0.9 mm 5 m/s 730 mmHg 78%
    11:00 +29°C° 0.9 mm 5 m/s 730 mmHg 80%
    12:00 +28°C° 1 mm 6 m/s 729 mmHg 83%
    13:00 +28°C° 1 mm 6 m/s 729 mmHg 85%
    14:00 +27°C° 1 mm 6 m/s 729 mmHg 88%
    15:00 +27°C° 0.8 mm 5 m/s 729 mmHg 88%
    16:00 +27°C° 0.8 mm 4 m/s 728 mmHg 88%
    17:00 +27°C° 0.8 mm 3 m/s 728 mmHg 88%
    18:00 +27°C° 0.2 mm 3 m/s 728 mmHg 88%
    19:00 +27°C° 0.2 mm 2 m/s 728 mmHg 87%
    20:00 +27°C° 0.2 mm 1 m/s 728 mmHg 86%
    21:00 +27°C° 0.2 mm 1 m/s 728 mmHg 86%
    22:00 +27°C° 0.2 mm 1 m/s 729 mmHg 86%
    23:00 +25°C° 0.2 mm 0 m/s 729 mmHg 85%
    Arată mai mult